DECAYED

STARLINK-2693, 48461 (Decayed)

Orbit data source: Space-Track

STARLINK-2693, 48461 was a payload satellite owned by SpaceX/Seattle (US) in LEO that was launched on Sun, 09 May 2021 UTC via an FALCON 9 launch vehicle from the Air Force Eastern Test Range (AFETR). Payload-class satellites include a variety of spacecraft equipped with specific instruments for various scientific and technological missions. These include communications satellites like Starlink; space stations such as the ISS; scientific satellites like the Hubble; Earth observation satellites from companies like Planet Labs, Umbra, and HawkEye 360; GPS; miniature CubeSats for education and research; and military/defense satellites.

Not visible in the next 10 days
Identifier
48461, 2021-040AK
Orbit
Decayed
Country
Flag of USUS
Related business
Manufacturer
SpaceX/Seattle
Mission
Decayed Commercial Communications
Bus & Motor
STARLINK, Unknown motor
Mass
260 kg wet, ~248 kg dry
Launch date (UTC)
2021-05-09 (5 years ago)
Launch vehicle
FALCON 9
Launch site
Air Force Eastern Test Range (AFETR)
Object type
Payload
Rocket body
Debris
Shape & HBR
Box + 1 Pan, 10.1 m
Radar Cross Section
13.562 m², Large (>1 m²)

Expand to show TLE details & history
Last TLE update: 1 year ago

TLE from 1 year ago
0 STARLINK-2693
1 48461U 21040AK  25086.51402862  .07329844  12175-4  12442-2 0  9991
2 48461  53.0315 259.0882 0005801 288.2618 173.3406 16.32316456216151
Epoch: 2025-03-27T12:20Z
TLE epoch observation values (Epoch: 2025-03-27T12:20:12.072Z)
Latitude
51.65791°
Longitude
-2.26503°
Altitude
196.241 km
Speed
7.793 km/s
True Right ascension
00h 31m 53s
True Declination
51° 28' 34"
Sunlit
Object was in daylight at epoch
Visualization orbit readout
Latitude
Unknown
Longitude
Unknown
Altitude
Unknown
Speed
Unknown
Apparent Right ascension
Unknown
Apparent Declination
Unknown
Sunlit
N/A
Visualization observer readout
Local Sidereal Time
21:24:12
Azimuth
Unknown
Elevation
Unknown
Doppler factor
Unknown
Orbital elements
Apogee altitude
190.419 km
Perigee altitude
182.803 km
Semi-major axis
6,564.748 km
Eccentricity
0.00058
Inclination
53.0315°
RAAN
259.0882°
Arg. of periapsis
288.2618°
True anomaly
173.3483°
Mean anomaly
173.3406°
Eccentric anomaly
173.34445°
Mean motion
4.08053 °/min
Orbital period
88.22 mins
BSTAR
0.0012442
Loading maneuver chart data...
Computing Atmospheric mass density...

Documentation

Showing up to 5 results
|